KY4GW Weather Reports


time (UTC)temp
F
wind
direction
speed
knots
gust
knots
rain 1hr
in
rain 24hr
in
rain mn
in
humidity
%
barometer
mb
20260503201143 63 155 1.7 1.7 0.00 0.00 0.00 36 1019.6
20260503200639 63 222 2.6 2.6 0.00 0.00 0.00 37 1019.6
20260503200136 63 258 2.6 2.6 0.00 0.00 0.00 38 1019.6
20260503195633 63 156 1.7 1.7 0.00 0.00 0.00 41 1020.4
20260503195130 63 240 2.6 2.6 0.00 0.00 0.00 40 1020.4
20260503194627 64 288 2.6 2.6 0.00 0.00 0.00 42 1020.4
20260503194122 63 174 1.7 1.7 0.00 0.00 0.00 39 1020.4
20260503193620 62 270 0.9 0.9 0.00 0.00 0.00 38 1020.4
20260503193115 62 218 1.7 1.7 0.00 0.00 0.00 39 1020.4
20260503192610 62 174 0.9 0.9 0.00 0.00 0.00 39 1020.7
20260503192106 62 264 2.6 2.6 0.00 0.00 0.00 38 1020.7
20260503191604 63 228 1.7 1.7 0.00 0.00 0.00 39 1020.7
20260503191100 62 192 1.7 1.7 0.00 0.00 0.00 41 1020.7
20260503190557 62 306 1.7 1.7 0.00 0.00 0.00 36 1020.7
20260503190054 63 205 2.6 2.6 0.00 0.00 0.00 37 1021.1
20260503185551 62 228 0.9 0.9 0.00 0.00 0.00 37 1021.1
20260503185050 62 234 1.7 1.7 0.00 0.00 0.00 36 1021.1
20260503184546 62 318 1.7 1.7 0.00 0.00 0.00 38 1021.1
20260503184043 61 228 1.7 1.7 0.00 0.00 0.00 42 1021.1
20260503183540 61 72 0.0 0.0 0.00 0.00 0.00 36 1021.1
20260503183037 61 252 1.7 1.7 0.00 0.00 0.00 41 1021.4
20260503182536 62 216 2.6 2.6 0.00 0.00 0.00 39 1021.4
20260503182033 61 204 0.0 0.0 0.00 0.00 0.00 38 1021.4
20260503181530 60 216 0.0 0.0 0.00 0.00 0.00 42 1021.4
20260503181026 62 210 1.7 1.7 0.00 0.00 0.00 40 1021.4
20260503180524 61 210 1.7 1.7 0.00 0.00 0.00 40 1021.4
20260503180021 61 290 0.0 0.0 0.00 0.00 0.00 42 1021.8
20260503175518 61 216 1.7 1.7 0.00 0.00 0.00 40 1021.8
20260503175015 61 216 1.7 1.7 0.00 0.00 0.00 38 1021.8
20260503174513 61 192 2.6 2.6 0.00 0.00 0.00 36 1022.1
20260503174008 61 206 1.7 1.7 0.00 0.00 0.00 42 1022.1
20260503173503 60 204 1.7 1.7 0.00 0.00 0.00 38 1022.1
20260503173000 61 150 2.6 2.6 0.00 0.00 0.00 36 1022.8
20260503172458 60 180 0.0 0.0 0.00 0.00 0.00 42 1022.8
20260503171954 60 222 0.0 0.0 0.00 0.00 0.00 36 1022.8
20260503171451 60 66 1.7 1.7 0.00 0.00 0.00 38 1022.8
20260503170949 60 240 1.7 1.7 0.00 0.00 0.00 41 1022.8
20260503170445 60 204 1.7 1.7 0.00 0.00 0.00 36 1022.8
20260503150837 61 167 0.0 0.0 0.00 0.00 0.00 40 1023.5
20260503150333 60 198 1.7 1.7 0.00 0.00 0.00 44 1023.5
20260503140257 57 204 0.0 0.0 0.00 0.00 0.00 45 1023.5
20260503131227 53 192 0.9 0.9 0.00 0.00 0.00 57 1023.5
20260503130725 53 294 0.0 0.0 0.00 0.00 0.00 55 1023.5
20260503130222 53 205 0.0 0.0 0.00 0.00 0.00 56 1023.5
20260503120147 43 50 0.0 0.0 0.00 0.00 0.00 72 1023.1
20260503110615 30 203 0.0 0.0 0.00 0.00 0.00 95 1022.8
20260503110113 30 203 0.0 0.0 0.00 0.00 0.00 95 1022.8
20260503090502 31 214 0.0 0.0 0.00 0.00 0.00 95 1022.4
20260503081428 32 192 0.0 0.0 0.00 0.00 0.00 94 1022.1
20260503080926 32 192 0.0 0.0 0.00 0.00 0.00 94 1022.1
20260503080422 32 192 0.0 0.0 0.00 0.00 0.00 94 1022.1
20260503072858 32 208 0.0 0.0 0.00 0.00 0.00 94 1021.8
20260503072355 33 208 0.0 0.0 0.00 0.00 0.00 94 1021.8
20260503071852 33 208 0.0 0.0 0.00 0.00 0.00 93 1021.8
20260503071349 33 207 0.0 0.0 0.00 0.00 0.00 94 1022.1
20260503070845 33 207 0.0 0.0 0.00 0.00 0.00 93 1022.1
20260503070343 33 207 0.0 0.0 0.00 0.00 0.00 93 1022.1
20260503060303 35 217 0.0 0.0 0.00 0.00 0.00 89 1022.1
20260503054749 35 216 0.0 0.0 0.00 0.00 0.00 88 1022.1
20260503054246 36 215 0.0 0.0 0.00 0.00 0.00 88 1022.1
20260503053744 36 192 0.0 0.0 0.00 0.00 0.00 87 1022.1
20260503053237 36 191 0.0 0.0 0.00 0.00 0.00 86 1022.1
20260503052732 37 191 0.0 0.0 0.00 0.00 0.00 86 1022.1
20260503052229 37 191 0.0 0.0 0.00 0.00 0.00 86 1022.1
20260503051724 37 169 0.0 0.0 0.00 0.00 0.00 85 1022.1
20260503051222 38 157 0.0 0.0 0.00 0.00 0.00 84 1022.1
20260503050718 38 156 0.0 0.0 0.00 0.00 0.00 82 1022.1
20260503050215 38 156 0.0 0.0 0.00 0.00 0.00 82 1022.1
20260503045713 39 133 0.0 0.0 0.00 0.00 0.00 80 1022.1
20260503045210 40 133 0.0 0.0 0.00 0.00 0.00 80 1022.1
20260503044707 40 130 0.0 0.0 0.00 0.00 0.00 79 1022.1
20260503044204 41 130 0.0 0.0 0.00 0.00 0.00 78 1022.1
20260503043700 42 126 0.0 0.0 0.00 0.00 0.00 69 1022.1
20260503043158 42 277 0.0 0.0 0.00 0.00 0.00 67 1022.1
20260503042654 42 54 1.7 1.7 0.00 0.00 0.00 67 1022.1
20260503042150 42 8 1.7 1.7 0.00 0.00 0.00 67 1022.1
20260503041646 43 0 0.0 0.0 0.00 0.00 0.00 67 1022.1
20260503041145 43 60 0.0 0.0 0.00 0.00 0.00 66 1022.1
20260503040642 43 36 0.0 0.0 0.00 0.00 0.00 65 1022.1
20260503040140 44 342 0.0 0.0 0.00 0.00 0.00 64 1022.1
20260503035635 44 288 1.7 1.7 0.00 0.00 0.00 64 1022.1
20260503035134 45 282 0.0 0.0 0.00 0.00 0.00 62 1022.1
20260503034631 45 6 0.9 0.9 0.00 0.00 0.00 63 1022.1
20260503034128 45 295 1.7 1.7 0.00 0.00 0.00 63 1022.1
20260503033625 44 296 1.7 1.7 0.00 0.00 0.00 62 1022.1
20260503033122 44 336 1.7 1.7 0.00 0.00 0.00 64 1022.1
20260503032621 44 0 0.0 0.0 0.00 0.00 0.00 65 1021.8
20260503032119 43 318 1.7 1.7 0.00 0.00 0.00 66 1021.8
20260503031616 42 316 0.0 0.0 0.00 0.00 0.00 68 1021.8
20260503031113 42 312 0.0 0.0 0.00 0.00 0.00 70 1022.1
20260503030609 41 354 0.9 0.9 0.00 0.00 0.00 72 1022.1
20260503030106 41 252 0.0 0.0 0.00 0.00 0.00 81 1022.1
20260503025603 42 252 0.0 0.0 0.00 0.00 0.00 78 1021.4
20260503025101 42 252 0.0 0.0 0.00 0.00 0.00 77 1021.4
20260503024556 44 252 0.0 0.0 0.00 0.00 0.00 76 1021.4
20260503024054 44 252 0.0 0.0 0.00 0.00 0.00 76 1021.4
20260503023551 44 270 1.7 1.7 0.00 0.00 0.00 64 1021.4
20260503023048 43 294 0.9 0.9 0.00 0.00 0.00 65 1021.4
20260503022544 42 31 1.7 1.7 0.00 0.00 0.00 71 1021.1
20260503022039 42 224 0.0 0.0 0.00 0.00 0.00 79 1021.1
20260503021536 43 234 0.0 0.0 0.00 0.00 0.00 79 1021.1
20260503021033 43 234 0.0 0.0 0.00 0.00 0.00 78 1021.1
20260503020530 44 236 0.0 0.0 0.00 0.00 0.00 77 1021.1
20260503020027 43 270 0.0 0.0 0.00 0.00 0.00 68 1021.1
20260503015523 43 207 0.0 0.0 0.00 0.00 0.00 74 1021.1
20260503015021 43 203 0.0 0.0 0.00 0.00 0.00 76 1021.1
20260503014517 44 211 0.0 0.0 0.00 0.00 0.00 74 1021.1
20260503014015 44 216 0.0 0.0 0.00 0.00 0.00 74 1020.7
20260503013512 45 217 0.0 0.0 0.00 0.00 0.00 72 1020.7
20260503013009 45 216 0.0 0.0 0.00 0.00 0.00 71 1020.7
20260503012507 46 186 0.0 0.0 0.00 0.00 0.00 73 1020.4
20260503012002 46 192 0.0 0.0 0.00 0.00 0.00 72 1020.4
20260503011500 47 210 0.0 0.0 0.00 0.00 0.00 73 1020.4
20260503010957 46 131 0.0 0.0 0.00 0.00 0.00 66 1020.4
20260503010453 46 217 0.0 0.0 0.00 0.00 0.00 71 1020.4
20260503005950 46 217 0.0 0.0 0.00 0.00 0.00 72 1020.1
20260503005448 47 217 0.0 0.0 0.00 0.00 0.00 72 1020.1
20260503004944 47 217 0.0 0.0 0.00 0.00 0.00 70 1020.1
20260503004441 47 216 0.0 0.0 0.00 0.00 0.00 69 1020.1
20260503003939 47 216 0.0 0.0 0.00 0.00 0.00 67 1020.1
20260503003435 47 216 0.0 0.0 0.00 0.00 0.00 67 1020.1
20260503002933 48 216 0.0 0.0 0.00 0.00 0.00 66 1020.1
20260503002430 48 220 0.0 0.0 0.00 0.00 0.00 62 1020.1
20260503001926 49 199 0.0 0.0 0.00 0.00 0.00 61 1020.1
20260503001422 49 198 0.0 0.0 0.00 0.00 0.00 60 1019.6
20260503000920 50 159 0.0 0.0 0.00 0.00 0.00 58 1019.6
20260503000417 51 222 0.0 0.0 0.00 0.00 0.00 59 1019.6
20260502235914 51 229 0.0 0.0 0.00 0.00 0.00 56 1019.3
20260502235411 51 252 0.0 0.0 0.00 0.00 0.00 53 1019.3
20260502234909 52 264 0.0 0.0 0.00 0.00 0.00 56 1019.3
20260502234405 52 270 3.5 3.5 0.00 0.00 0.00 51 1019.3
20260502233903 51 228 1.7 1.7 0.00 0.00 0.00 55 1019.3
20260502233358 52 234 0.0 0.0 0.00 0.00 0.00 57 1019.3
20260502232855 52 324 0.0 0.0 0.00 0.00 0.00 58 1019.3
20260502232351 52 133 1.7 1.7 0.00 0.00 0.00 52 1019.3
20260502231848 53 252 1.7 1.7 0.00 0.00 0.00 52 1019.3
20260502231346 53 210 1.7 1.7 0.00 0.00 0.00 51 1019.3
20260502230844 53 314 1.7 1.7 0.00 0.00 0.00 50 1019.3
20260502230342 53 263 1.7 1.7 0.00 0.00 0.00 50 1019.3
20260502225838 53 168 0.0 0.0 0.00 0.00 0.00 54 1019.3
20260502225335 53 318 0.9 0.9 0.00 0.00 0.00 52 1019.3
20260502224832 53 222 2.6 2.6 0.00 0.00 0.00 51 1019.3
20260502224328 53 300 2.6 2.6 0.00 0.00 0.00 53 1019.3
20260502223825 53 297 3.5 4.3 0.00 0.00 0.00 48 1019.3
20260502223323 53 302 1.7 1.7 0.00 0.00 0.00 49 1019.3
20260502222821 53 222 0.9 0.9 0.00 0.00 0.00 50 1019.6
20260502222318 53 282 1.7 1.7 0.00 0.00 0.00 49 1019.6
20260502221814 53 282 1.7 1.7 0.00 0.00 0.00 50 1019.6
20260502221310 54 284 1.7 1.7 0.00 0.00 0.00 51 1019.3
20260502220808 54 240 0.0 0.0 0.00 0.00 0.00 54 1019.3
20260502220303 54 288 1.7 1.7 0.00 0.00 0.00 48 1019.3
20260502215800 54 313 3.5 3.5 0.00 0.00 0.00 47 1019.3
20260502215257 54 275 3.5 3.5 0.00 0.00 0.00 47 1019.3
20260502214754 54 168 1.7 1.7 0.00 0.00 0.00 47 1019.3
20260502214251 54 274 4.3 5.2 0.00 0.00 0.00 46 1019.3
20260502213748 54 33 2.6 2.6 0.00 0.00 0.00 47 1019.3
20260502213245 54 288 5.2 5.2 0.00 0.00 0.00 46 1019.3
20260502212744 54 294 5.2 5.2 0.00 0.00 0.00 46 1019.3
20260502212242 54 318 3.5 3.5 0.00 0.00 0.00 51 1019.3
20260502211737 54 246 1.7 1.7 0.00 0.00 0.00 47 1019.3
20260502211235 54 288 3.5 3.5 0.00 0.00 0.00 47 1019.3
20260502210731 54 294 1.7 1.7 0.00 0.00 0.00 47 1019.3
20260502210223 53 270 4.3 4.3 0.00 0.00 0.00 47 1019.3
20260502205720 53 306 4.3 4.3 0.00 0.00 0.00 46 1019.3
20260502205216 53 354 4.3 4.3 0.00 0.00 0.00 48 1019.3
20260502204714 53 270 6.1 7.0 0.00 0.00 0.00 50 1019.3
20260502204212 53 318 1.7 1.7 0.00 0.00 0.00 51 1019.3
20260502203709 53 318 3.5 3.5 0.00 0.00 0.00 50 1019.3
20260502203207 53 324 2.6 2.6 0.00 0.00 0.00 50 1019.3
20260502202700 53 294 4.3 4.3 0.00 0.00 0.00 48 1019.6
20260502202159 53 330 3.5 3.5 0.00 0.00 0.00 50 1019.6
20260502201656 53 288 5.2 5.2 0.00 0.00 0.00 50 1019.6